Year,Month,Day,Hour,Minute,Value (Times are PST for temperature in C)
2018,06,12,00,00,11.00
2018,06,12,00,01,11.00
2018,06,12,00,02,11.00
2018,06,12,00,03,11.00
2018,06,12,00,04,11.00
2018,06,12,00,05,11.00
2018,06,12,00,06,10.90
2018,06,12,00,07,10.90
2018,06,12,00,08,10.90
2018,06,12,00,09,10.90
2018,06,12,00,10,10.90
2018,06,12,00,11,10.90
2018,06,12,00,12,10.90
2018,06,12,00,13,10.90
2018,06,12,00,14,10.90
2018,06,12,00,15,10.90
2018,06,12,00,16,10.90
2018,06,12,00,17,10.80
2018,06,12,00,18,10.80
2018,06,12,00,19,10.80
2018,06,12,00,20,10.80
2018,06,12,00,21,10.70
2018,06,12,00,22,10.70
2018,06,12,00,23,10.70
2018,06,12,00,24,10.70
2018,06,12,00,25,10.60
2018,06,12,00,26,10.60
2018,06,12,00,27,10.60
2018,06,12,00,28,10.50
2018,06,12,00,29,10.50
2018,06,12,00,30,10.50
2018,06,12,00,31,10.40
2018,06,12,00,32,10.40
2018,06,12,00,33,10.30
2018,06,12,00,34,10.30
2018,06,12,00,35,10.20
2018,06,12,00,36,10.20
2018,06,12,00,37,10.10
2018,06,12,00,38,10.10
2018,06,12,00,39,10.10
2018,06,12,00,40,10.10
2018,06,12,00,41,10.10
2018,06,12,00,42,10.00
2018,06,12,00,43,10.00
2018,06,12,00,44,10.00
2018,06,12,00,45,10.00
2018,06,12,00,46,10.00
2018,06,12,00,47,10.00
2018,06,12,00,48,10.00
2018,06,12,00,49,9.90
2018,06,12,00,50,9.90
2018,06,12,00,51,9.90
2018,06,12,00,52,9.90
2018,06,12,00,53,9.90
2018,06,12,00,54,9.90
2018,06,12,00,55,9.90
2018,06,12,00,56,9.90
2018,06,12,00,57,9.80
2018,06,12,00,58,9.80
2018,06,12,00,59,9.80
2018,06,12,01,00,9.80
2018,06,12,01,01,9.70
2018,06,12,01,02,9.70
2018,06,12,01,03,9.70
2018,06,12,01,04,9.70
2018,06,12,01,05,9.70
2018,06,12,01,06,9.70
2018,06,12,01,07,9.70
2018,06,12,01,08,9.70
2018,06,12,01,09,9.70
2018,06,12,01,10,9.70
2018,06,12,01,11,9.70
2018,06,12,01,12,9.70
2018,06,12,01,13,9.70
2018,06,12,01,14,9.60
2018,06,12,01,15,9.60
2018,06,12,01,16,9.60
2018,06,12,01,17,9.60
2018,06,12,01,18,9.60
2018,06,12,01,19,9.60
2018,06,12,01,20,9.60
2018,06,12,01,21,9.60
2018,06,12,01,22,9.60
2018,06,12,01,23,9.60
2018,06,12,01,24,9.50
2018,06,12,01,25,9.50
2018,06,12,01,26,9.50
2018,06,12,01,27,9.40
2018,06,12,01,28,9.40
2018,06,12,01,29,9.40
2018,06,12,01,30,9.40
2018,06,12,01,31,9.40
2018,06,12,01,32,9.40
2018,06,12,01,33,9.30
2018,06,12,01,34,9.30
2018,06,12,01,35,9.30
2018,06,12,01,36,9.30
2018,06,12,01,37,9.30
2018,06,12,01,38,9.30
2018,06,12,01,39,9.30
2018,06,12,01,40,9.30
2018,06,12,01,41,9.30
2018,06,12,01,42,9.20
2018,06,12,01,43,9.20
2018,06,12,01,44,9.20
2018,06,12,01,45,9.20
2018,06,12,01,46,9.20
2018,06,12,01,47,9.20
2018,06,12,01,48,9.20
2018,06,12,01,49,9.20
2018,06,12,01,50,9.10
2018,06,12,01,51,9.10
2018,06,12,01,52,9.10
2018,06,12,01,53,9.10
2018,06,12,01,54,9.00
2018,06,12,01,55,9.00
2018,06,12,01,56,8.90
2018,06,12,01,57,8.90
2018,06,12,01,58,8.90
2018,06,12,01,59,8.90
2018,06,12,02,00,8.90
2018,06,12,02,01,8.80
2018,06,12,02,02,8.80
2018,06,12,02,03,8.80
2018,06,12,02,04,8.80
2018,06,12,02,05,8.80
2018,06,12,02,06,8.80
2018,06,12,02,07,8.80
2018,06,12,02,08,8.80
2018,06,12,02,09,8.80
2018,06,12,02,10,8.80
2018,06,12,02,11,8.70
2018,06,12,02,12,8.70
2018,06,12,02,13,8.70
2018,06,12,02,14,8.70
2018,06,12,02,15,8.70
2018,06,12,02,16,8.70
2018,06,12,02,17,8.80
2018,06,12,02,18,8.80
2018,06,12,02,19,8.80
2018,06,12,02,20,8.80
2018,06,12,02,21,8.80
2018,06,12,02,22,8.90
2018,06,12,02,23,8.90
2018,06,12,02,24,8.90
2018,06,12,02,25,8.90
2018,06,12,02,26,8.90
2018,06,12,02,27,8.90
2018,06,12,02,28,8.90
2018,06,12,02,29,8.90
2018,06,12,02,30,9.00
2018,06,12,02,31,9.00
2018,06,12,02,32,9.00
2018,06,12,02,33,9.10
2018,06,12,02,34,9.10
2018,06,12,02,35,9.10
2018,06,12,02,36,9.10
2018,06,12,02,37,9.10
2018,06,12,02,38,9.10
2018,06,12,02,39,9.10
2018,06,12,02,40,9.10
2018,06,12,02,41,9.10
2018,06,12,02,42,9.10
2018,06,12,02,43,9.00
2018,06,12,02,44,9.00
2018,06,12,02,45,8.90
2018,06,12,02,46,8.90
2018,06,12,02,47,8.80
2018,06,12,02,48,8.80
2018,06,12,02,49,8.80
2018,06,12,02,50,8.80
2018,06,12,02,51,8.80
2018,06,12,02,52,8.70
2018,06,12,02,53,8.70
2018,06,12,02,54,8.70
2018,06,12,02,55,8.70
2018,06,12,02,56,8.70
2018,06,12,02,57,8.70
2018,06,12,02,58,8.60
2018,06,12,02,59,8.60
2018,06,12,03,00,8.60
2018,06,12,03,01,8.60
2018,06,12,03,02,8.60
2018,06,12,03,03,8.50
2018,06,12,03,04,8.50
2018,06,12,03,05,8.40
2018,06,12,03,06,8.40
2018,06,12,03,07,8.40
2018,06,12,03,08,8.40
2018,06,12,03,09,8.40
2018,06,12,03,10,8.40
2018,06,12,03,11,8.30
2018,06,12,03,12,8.30
2018,06,12,03,13,8.30
2018,06,12,03,14,8.30
2018,06,12,03,15,8.30
2018,06,12,03,16,8.30
2018,06,12,03,17,8.30
2018,06,12,03,18,8.20
2018,06,12,03,19,8.20
2018,06,12,03,20,8.20
2018,06,12,03,21,8.20
2018,06,12,03,22,8.20
2018,06,12,03,23,8.10
2018,06,12,03,24,8.10
2018,06,12,03,25,8.10
2018,06,12,03,26,8.00
2018,06,12,03,27,8.00
2018,06,12,03,28,7.90
2018,06,12,03,29,7.90
2018,06,12,03,30,7.90
2018,06,12,03,31,7.90
2018,06,12,03,32,7.80
2018,06,12,03,33,7.80
2018,06,12,03,34,7.80
2018,06,12,03,35,7.80
2018,06,12,03,36,7.80
2018,06,12,03,37,7.80
2018,06,12,03,38,7.70
2018,06,12,03,39,7.70
2018,06,12,03,40,7.70
2018,06,12,03,41,7.70
2018,06,12,03,42,7.70
2018,06,12,03,43,7.70
2018,06,12,03,44,7.60
2018,06,12,03,45,7.60
2018,06,12,03,46,7.60
2018,06,12,03,47,7.60
2018,06,12,03,48,7.60
2018,06,12,03,49,7.60
2018,06,12,03,50,7.60
2018,06,12,03,51,7.60
2018,06,12,03,52,7.60
2018,06,12,03,53,7.60
2018,06,12,03,54,7.60
2018,06,12,03,55,7.60
2018,06,12,03,56,7.60
2018,06,12,03,57,7.60
2018,06,12,03,58,7.60
2018,06,12,03,59,7.60
2018,06,12,04,00,7.60
2018,06,12,04,01,7.60
2018,06,12,04,02,7.60
2018,06,12,04,03,7.60
2018,06,12,04,04,7.60
2018,06,12,04,05,7.60
2018,06,12,04,06,7.60
2018,06,12,04,07,7.60
2018,06,12,04,08,7.60
2018,06,12,04,09,7.60
2018,06,12,04,10,7.60
2018,06,12,04,11,7.60
2018,06,12,04,12,7.60
2018,06,12,04,13,7.60
2018,06,12,04,14,7.60
2018,06,12,04,15,7.50
2018,06,12,04,16,7.50
2018,06,12,04,17,7.50
2018,06,12,04,18,7.50
2018,06,12,04,19,7.50
2018,06,12,04,20,7.50
2018,06,12,04,21,7.50
2018,06,12,04,22,7.50
2018,06,12,04,23,7.50
2018,06,12,04,24,7.50
2018,06,12,04,25,7.50
2018,06,12,04,26,7.50
2018,06,12,04,27,7.50
2018,06,12,04,28,7.50
2018,06,12,04,29,7.60
2018,06,12,04,30,7.60
2018,06,12,04,31,7.60
2018,06,12,04,32,7.60
2018,06,12,04,33,7.60
2018,06,12,04,34,7.60
2018,06,12,04,35,7.60
2018,06,12,04,36,7.60
2018,06,12,04,37,7.60
2018,06,12,04,38,7.60
2018,06,12,04,39,7.60
2018,06,12,04,40,7.60
2018,06,12,04,41,7.60
2018,06,12,04,42,7.60
2018,06,12,04,43,7.60
2018,06,12,04,44,7.60
2018,06,12,04,45,7.50
2018,06,12,04,46,7.50
2018,06,12,04,47,7.50
2018,06,12,04,48,7.50
2018,06,12,04,49,7.50
2018,06,12,04,50,7.50
2018,06,12,04,51,7.50
2018,06,12,04,52,7.50
2018,06,12,04,53,7.50
2018,06,12,04,54,7.50
2018,06,12,04,55,7.50
2018,06,12,04,56,7.50
2018,06,12,04,57,7.50
2018,06,12,04,58,7.50
2018,06,12,04,59,7.50
2018,06,12,05,00,7.50
2018,06,12,05,01,7.50
2018,06,12,05,02,7.50
2018,06,12,05,03,7.50
2018,06,12,05,04,7.50
2018,06,12,05,05,7.50
2018,06,12,05,06,7.50
2018,06,12,05,07,7.50
2018,06,12,05,08,7.50
2018,06,12,05,09,7.50
2018,06,12,05,10,7.50
2018,06,12,05,11,7.50
2018,06,12,05,12,7.50
2018,06,12,05,13,7.50
2018,06,12,05,14,7.50
2018,06,12,05,15,7.50
2018,06,12,05,16,7.50
2018,06,12,05,17,7.50
2018,06,12,05,18,7.50
2018,06,12,05,19,7.50
2018,06,12,05,20,7.50
2018,06,12,05,21,7.50
2018,06,12,05,22,7.60
2018,06,12,05,23,7.60
2018,06,12,05,24,7.60
2018,06,12,05,25,7.60
2018,06,12,05,26,7.60
2018,06,12,05,27,7.70
2018,06,12,05,28,7.70
2018,06,12,05,29,7.70
2018,06,12,05,30,7.70
2018,06,12,05,31,7.70
2018,06,12,05,32,7.70
2018,06,12,05,33,7.70
2018,06,12,05,34,7.80
2018,06,12,05,35,7.80
2018,06,12,05,36,7.80
2018,06,12,05,37,7.80
2018,06,12,05,38,7.90
2018,06,12,05,39,7.90
2018,06,12,05,40,7.90
2018,06,12,05,41,7.90
2018,06,12,05,42,7.90
2018,06,12,05,43,8.00
2018,06,12,05,44,8.00
2018,06,12,05,45,8.00
2018,06,12,05,46,8.00
2018,06,12,05,47,8.10
2018,06,12,05,48,8.10
2018,06,12,05,49,8.10
2018,06,12,05,50,8.20
2018,06,12,05,51,8.20
2018,06,12,05,52,8.20
2018,06,12,05,53,8.20
2018,06,12,05,54,8.20
2018,06,12,05,55,8.30
2018,06,12,05,56,8.30
2018,06,12,05,57,8.30
2018,06,12,05,58,8.30
2018,06,12,05,59,8.40
2018,06,12,06,00,8.40
2018,06,12,06,01,8.40
2018,06,12,06,02,8.40
2018,06,12,06,03,8.40
2018,06,12,06,04,8.40
2018,06,12,06,05,8.50
2018,06,12,06,06,8.50
2018,06,12,06,07,8.50
2018,06,12,06,08,8.50
2018,06,12,06,09,8.60
2018,06,12,06,10,8.60
2018,06,12,06,11,8.60
2018,06,12,06,12,8.60
2018,06,12,06,13,8.60
2018,06,12,06,14,8.60
2018,06,12,06,15,8.70
2018,06,12,06,16,8.70
2018,06,12,06,17,8.70
2018,06,12,06,18,8.70
2018,06,12,06,19,8.80
2018,06,12,06,20,8.80
2018,06,12,06,21,8.80
2018,06,12,06,22,8.80
2018,06,12,06,23,8.90
2018,06,12,06,24,8.90
2018,06,12,06,25,8.90
2018,06,12,06,26,9.00
2018,06,12,06,27,9.10
2018,06,12,06,28,9.10
2018,06,12,06,29,9.10
2018,06,12,06,30,9.10
2018,06,12,06,31,9.20
2018,06,12,06,32,9.20
2018,06,12,06,33,9.30
2018,06,12,06,34,9.30
2018,06,12,06,35,9.40
2018,06,12,06,36,9.40
2018,06,12,06,37,9.40
2018,06,12,06,38,9.40
2018,06,12,06,39,9.50
2018,06,12,06,40,9.50
2018,06,12,06,41,9.50
2018,06,12,06,42,9.50
2018,06,12,06,43,9.60
2018,06,12,06,44,9.60
2018,06,12,06,45,9.60
2018,06,12,06,46,9.60
2018,06,12,06,47,9.70
2018,06,12,06,48,9.70
2018,06,12,06,49,9.70
2018,06,12,06,50,9.80
2018,06,12,06,51,9.80
2018,06,12,06,52,9.90
2018,06,12,06,53,9.90
2018,06,12,06,54,9.90
2018,06,12,06,55,10.00
2018,06,12,06,56,10.00
2018,06,12,06,57,10.10
2018,06,12,06,58,10.10
2018,06,12,06,59,10.10
2018,06,12,07,00,10.10
2018,06,12,07,01,10.20
2018,06,12,07,02,10.20
2018,06,12,07,03,10.30
2018,06,12,07,04,10.30
2018,06,12,07,05,10.30
2018,06,12,07,06,10.30
2018,06,12,07,07,10.30
2018,06,12,07,08,10.40
2018,06,12,07,09,10.40
2018,06,12,07,10,10.40
2018,06,12,07,11,10.40
2018,06,12,07,12,10.50
2018,06,12,07,13,10.50
2018,06,12,07,14,10.60
2018,06,12,07,15,10.60
2018,06,12,07,16,10.60
2018,06,12,07,17,10.70
2018,06,12,07,18,10.70
2018,06,12,07,19,10.70
2018,06,12,07,20,10.70
2018,06,12,07,21,10.70
2018,06,12,07,22,10.70
2018,06,12,07,23,10.70
2018,06,12,07,24,10.80
2018,06,12,07,25,10.80
2018,06,12,07,26,10.80
2018,06,12,07,27,10.80
2018,06,12,07,28,10.80
2018,06,12,07,29,10.80
2018,06,12,07,30,10.90
2018,06,12,07,31,10.90
2018,06,12,07,32,10.90
2018,06,12,07,33,11.00
2018,06,12,07,34,11.00
2018,06,12,07,35,11.10
2018,06,12,07,36,11.10
2018,06,12,07,37,11.10
2018,06,12,07,38,11.10
2018,06,12,07,39,11.10
2018,06,12,07,40,11.20
2018,06,12,07,41,11.20
2018,06,12,07,42,11.20
2018,06,12,07,43,11.20
2018,06,12,07,44,11.20
2018,06,12,07,45,11.20
2018,06,12,07,46,11.30
2018,06,12,07,47,11.30
2018,06,12,07,48,11.30
2018,06,12,07,49,11.30
2018,06,12,07,50,11.30
2018,06,12,07,51,11.30
2018,06,12,07,52,11.40
2018,06,12,07,53,11.40
2018,06,12,07,54,11.40
2018,06,12,07,55,11.40
2018,06,12,07,56,11.40
2018,06,12,07,57,11.50
2018,06,12,07,58,11.50
2018,06,12,07,59,11.50
2018,06,12,08,00,11.50
2018,06,12,08,01,11.50
2018,06,12,08,02,11.60
2018,06,12,08,03,11.60
2018,06,12,08,04,11.60
2018,06,12,08,05,11.60
2018,06,12,08,06,11.70
2018,06,12,08,07,11.70
2018,06,12,08,08,11.70
2018,06,12,08,09,11.70
2018,06,12,08,10,11.80
2018,06,12,08,11,11.80
2018,06,12,08,12,11.80
2018,06,12,08,13,11.80
2018,06,12,08,14,11.90
2018,06,12,08,15,11.90
2018,06,12,08,16,11.90
2018,06,12,08,17,12.00
2018,06,12,08,18,12.00
2018,06,12,08,19,12.00
2018,06,12,08,20,12.10
2018,06,12,08,21,12.10
2018,06,12,08,22,12.10
2018,06,12,08,23,12.20
2018,06,12,08,24,12.20
2018,06,12,08,25,12.20
2018,06,12,08,26,12.30
2018,06,12,08,27,12.30
2018,06,12,08,28,12.30
2018,06,12,08,29,12.30
2018,06,12,08,30,12.40
2018,06,12,08,31,12.40
2018,06,12,08,32,12.40
2018,06,12,08,33,12.50
2018,06,12,08,34,12.50
2018,06,12,08,35,12.60
2018,06,12,08,36,12.60
2018,06,12,08,37,12.60
2018,06,12,08,38,12.70
2018,06,12,08,39,12.70
2018,06,12,08,40,12.70
2018,06,12,08,41,12.70
2018,06,12,08,42,12.80
2018,06,12,08,43,12.80
2018,06,12,08,44,12.80
2018,06,12,08,45,12.80
2018,06,12,08,46,12.80
2018,06,12,08,47,12.80
2018,06,12,08,48,12.80
2018,06,12,08,49,12.80
2018,06,12,08,50,12.80
2018,06,12,08,51,12.80
2018,06,12,08,52,12.80
2018,06,12,08,53,12.80
2018,06,12,08,54,12.80
2018,06,12,08,55,12.80
2018,06,12,08,56,12.80
2018,06,12,08,57,12.80
2018,06,12,08,58,12.80
2018,06,12,08,59,12.80
2018,06,12,09,00,12.80
2018,06,12,09,01,12.80
2018,06,12,09,02,12.80
2018,06,12,09,03,12.80
2018,06,12,09,04,12.90
2018,06,12,09,05,12.90
2018,06,12,09,06,12.90
2018,06,12,09,07,12.90
2018,06,12,09,08,12.90
2018,06,12,09,09,13.00
2018,06,12,09,10,13.00
2018,06,12,09,11,13.10
2018,06,12,09,12,13.10
2018,06,12,09,13,13.20
2018,06,12,09,14,13.20
2018,06,12,09,15,13.30
2018,06,12,09,16,13.30
2018,06,12,09,17,13.30
2018,06,12,09,18,13.30
2018,06,12,09,19,13.30
2018,06,12,09,20,13.30
2018,06,12,09,21,13.30
2018,06,12,09,22,13.30
2018,06,12,09,23,13.30
2018,06,12,09,24,13.30
2018,06,12,09,25,13.30
2018,06,12,09,26,13.30
2018,06,12,09,27,13.30
2018,06,12,09,28,13.30
2018,06,12,09,29,13.30
2018,06,12,09,30,13.40
2018,06,12,09,31,13.40
2018,06,12,09,32,13.40
2018,06,12,09,33,13.40
2018,06,12,09,34,13.40
2018,06,12,09,35,13.40
2018,06,12,09,36,13.50
2018,06,12,09,37,13.50
2018,06,12,09,38,13.50
2018,06,12,09,39,13.50
2018,06,12,09,40,13.50
2018,06,12,09,41,13.50
2018,06,12,09,42,13.60
2018,06,12,09,43,13.60
2018,06,12,09,44,13.70
2018,06,12,09,45,13.70
2018,06,12,09,46,13.70
2018,06,12,09,47,13.70
2018,06,12,09,48,13.70
2018,06,12,09,49,13.70
2018,06,12,09,50,13.70
2018,06,12,09,51,13.70
2018,06,12,09,52,13.70
2018,06,12,09,53,13.70
2018,06,12,09,54,13.70
2018,06,12,09,55,13.70
2018,06,12,09,56,13.70
2018,06,12,09,57,13.80
2018,06,12,09,58,13.80
2018,06,12,09,59,13.80
2018,06,12,10,00,13.80
2018,06,12,10,01,13.80
2018,06,12,10,02,13.80
2018,06,12,10,03,13.70
2018,06,12,10,04,13.70
2018,06,12,10,05,13.70
2018,06,12,10,06,13.70
2018,06,12,10,07,13.70
2018,06,12,10,08,13.70
2018,06,12,10,09,13.70
2018,06,12,10,10,13.60
2018,06,12,10,11,13.60
2018,06,12,10,12,13.60
2018,06,12,10,13,13.60
2018,06,12,10,14,13.60
2018,06,12,10,15,13.60
2018,06,12,10,16,13.50
2018,06,12,10,17,13.50
2018,06,12,10,18,13.40
2018,06,12,10,19,13.40
2018,06,12,10,20,13.40
2018,06,12,10,21,13.40
2018,06,12,10,22,13.40
2018,06,12,10,23,13.40
2018,06,12,10,24,13.50
2018,06,12,10,25,13.50
2018,06,12,10,26,13.50
2018,06,12,10,27,13.50
2018,06,12,10,28,13.40
2018,06,12,10,29,13.40
2018,06,12,10,30,13.50
2018,06,12,10,31,13.50
2018,06,12,10,32,13.50
2018,06,12,10,33,13.50
2018,06,12,10,34,13.60
2018,06,12,10,35,13.60
2018,06,12,10,36,13.60
2018,06,12,10,37,13.60
2018,06,12,10,38,13.60
2018,06,12,10,39,13.60
2018,06,12,10,40,13.60
2018,06,12,10,41,13.60
2018,06,12,10,42,13.60
2018,06,12,10,43,13.60
2018,06,12,10,44,13.60
2018,06,12,10,45,13.60
2018,06,12,10,46,13.60
2018,06,12,10,47,13.60
2018,06,12,10,48,13.60
2018,06,12,10,49,13.60
2018,06,12,10,50,13.60
2018,06,12,10,51,13.60
2018,06,12,10,52,13.60
2018,06,12,10,53,13.70
2018,06,12,10,54,13.70
2018,06,12,10,55,13.70
2018,06,12,10,56,13.70
2018,06,12,10,57,13.70
2018,06,12,10,58,13.70
2018,06,12,10,59,13.70
2018,06,12,11,00,13.70
2018,06,12,11,01,13.60
2018,06,12,11,02,13.60
2018,06,12,11,03,13.60
2018,06,12,11,04,13.60
2018,06,12,11,05,13.60
2018,06,12,11,06,13.60
2018,06,12,11,07,13.60
2018,06,12,11,08,13.60
2018,06,12,11,09,13.60
2018,06,12,11,10,13.60
2018,06,12,11,11,13.70
2018,06,12,11,12,13.70
2018,06,12,11,13,13.70
2018,06,12,11,14,13.70
2018,06,12,11,15,13.70
2018,06,12,11,16,13.70
2018,06,12,11,17,13.70
2018,06,12,11,18,13.70
2018,06,12,11,19,13.60
2018,06,12,11,20,13.60
2018,06,12,11,21,13.60
2018,06,12,11,22,13.60
2018,06,12,11,23,13.70
2018,06,12,11,24,13.70
2018,06,12,11,25,13.70
2018,06,12,11,26,13.70
2018,06,12,11,27,13.70
2018,06,12,11,28,13.70
2018,06,12,11,29,13.70
2018,06,12,11,30,13.70
2018,06,12,11,31,13.70
2018,06,12,11,32,13.70
2018,06,12,11,33,13.70
2018,06,12,11,34,13.70
2018,06,12,11,35,13.70
2018,06,12,11,36,13.80
2018,06,12,11,37,13.80
2018,06,12,11,38,13.80
2018,06,12,11,39,13.80
2018,06,12,11,40,13.80
2018,06,12,11,41,13.80
2018,06,12,11,42,13.80
2018,06,12,11,43,13.80
2018,06,12,11,44,13.80
2018,06,12,11,45,13.80
2018,06,12,11,46,13.80
2018,06,12,11,47,13.80
2018,06,12,11,48,13.70
2018,06,12,11,49,13.70
2018,06,12,11,50,13.80
2018,06,12,11,51,13.80
2018,06,12,11,52,13.90
2018,06,12,11,53,13.90
2018,06,12,11,54,13.90
2018,06,12,11,55,13.90
2018,06,12,11,56,13.90
2018,06,12,11,57,13.90
2018,06,12,11,58,13.90
2018,06,12,11,59,13.90
2018,06,12,12,00,14.00
2018,06,12,12,01,14.00
2018,06,12,12,02,14.00
2018,06,12,12,03,14.00
2018,06,12,12,04,14.00
2018,06,12,12,05,14.00
2018,06,12,12,06,14.00
2018,06,12,12,07,14.00
2018,06,12,12,08,13.90
2018,06,12,12,09,13.90
2018,06,12,12,10,13.90
2018,06,12,12,11,13.90
2018,06,12,12,12,13.90
2018,06,12,12,13,13.90
2018,06,12,12,14,13.90
2018,06,12,12,15,13.90
2018,06,12,12,16,13.90
2018,06,12,12,17,13.90
2018,06,12,12,18,14.00
2018,06,12,12,19,14.00
2018,06,12,12,20,14.00
2018,06,12,12,21,14.00
2018,06,12,12,22,14.00
2018,06,12,12,23,13.90
2018,06,12,12,24,13.90
2018,06,12,12,25,13.90
2018,06,12,12,26,13.90
2018,06,12,12,27,13.80
2018,06,12,12,28,13.80
2018,06,12,12,29,13.80
2018,06,12,12,30,13.80
2018,06,12,12,31,13.80
2018,06,12,12,32,13.80
2018,06,12,12,33,13.80
2018,06,12,12,34,13.80
2018,06,12,12,35,13.80
2018,06,12,12,36,13.80
2018,06,12,12,37,13.80
2018,06,12,12,38,13.90
2018,06,12,12,39,13.80
2018,06,12,12,40,13.80
2018,06,12,12,41,13.80
2018,06,12,12,42,13.80
2018,06,12,12,43,13.80
2018,06,12,12,44,13.70
2018,06,12,12,45,13.70
2018,06,12,12,46,13.80
2018,06,12,12,47,13.80
2018,06,12,12,48,13.80
2018,06,12,12,49,13.80
2018,06,12,12,50,13.80
2018,06,12,12,51,13.80
2018,06,12,12,52,13.80
2018,06,12,12,53,13.90
2018,06,12,12,54,13.90
2018,06,12,12,55,13.90
2018,06,12,12,56,14.00
2018,06,12,12,57,14.00
2018,06,12,12,58,14.00
2018,06,12,12,59,14.00
2018,06,12,13,00,14.00
2018,06,12,13,01,14.10
2018,06,12,13,02,14.10
2018,06,12,13,03,14.10
2018,06,12,13,04,14.00
2018,06,12,13,05,14.00
2018,06,12,13,06,14.00
2018,06,12,13,07,14.00
2018,06,12,13,08,14.00
2018,06,12,13,09,14.00
2018,06,12,13,10,14.00
2018,06,12,13,11,14.00
2018,06,12,13,12,14.00
2018,06,12,13,13,14.00
2018,06,12,13,14,14.00
2018,06,12,13,15,14.00
2018,06,12,13,16,14.00
2018,06,12,13,17,14.10
2018,06,12,13,18,14.10
2018,06,12,13,19,14.10
2018,06,12,13,20,14.10
2018,06,12,13,21,14.10
2018,06,12,13,22,14.10
2018,06,12,13,23,14.10
2018,06,12,13,24,14.10
2018,06,12,13,25,14.10
2018,06,12,13,26,14.10
2018,06,12,13,27,14.10
2018,06,12,13,28,14.20
2018,06,12,13,29,14.20
2018,06,12,13,30,14.20
2018,06,12,13,31,14.20
2018,06,12,13,32,14.20
2018,06,12,13,33,14.30
2018,06,12,13,34,14.30
2018,06,12,13,35,14.30
2018,06,12,13,36,14.30
2018,06,12,13,37,14.30
2018,06,12,13,38,14.20
2018,06,12,13,39,14.20
2018,06,12,13,40,14.20
2018,06,12,13,41,14.20
2018,06,12,13,42,14.10
2018,06,12,13,43,14.10
2018,06,12,13,44,14.10
2018,06,12,13,45,14.10
2018,06,12,13,46,14.00
2018,06,12,13,47,14.00
2018,06,12,13,48,14.00
2018,06,12,13,49,13.90
2018,06,12,13,50,13.90
2018,06,12,13,51,13.90
2018,06,12,13,52,13.90
2018,06,12,13,53,13.90
2018,06,12,13,54,13.90
2018,06,12,13,55,13.90
2018,06,12,13,56,13.90
2018,06,12,13,57,13.90
2018,06,12,13,58,13.90
2018,06,12,13,59,13.90
2018,06,12,14,00,13.90
2018,06,12,14,01,13.80
2018,06,12,14,02,13.80
2018,06,12,14,03,13.70
2018,06,12,14,04,13.70
2018,06,12,14,05,13.60
2018,06,12,14,06,13.60
2018,06,12,14,07,13.50
2018,06,12,14,08,13.50
2018,06,12,14,09,13.50
2018,06,12,14,10,13.40
2018,06,12,14,11,13.40
2018,06,12,14,12,13.30
2018,06,12,14,13,13.30
2018,06,12,14,14,13.30
2018,06,12,14,15,13.20
2018,06,12,14,16,13.20
2018,06,12,14,17,13.20
2018,06,12,14,18,13.20
2018,06,12,14,19,13.20
2018,06,12,14,20,13.20
2018,06,12,14,21,13.20
2018,06,12,14,22,13.20
2018,06,12,14,23,13.20
2018,06,12,14,24,13.10
2018,06,12,14,25,13.10
2018,06,12,14,26,13.10
2018,06,12,14,27,13.10
2018,06,12,14,28,13.10
2018,06,12,14,29,13.10
2018,06,12,14,30,13.10
2018,06,12,14,31,13.10
2018,06,12,14,32,13.10
2018,06,12,14,33,13.10
2018,06,12,14,34,13.10
2018,06,12,14,35,13.10
2018,06,12,14,36,13.20
2018,06,12,14,37,13.20
2018,06,12,14,38,13.10
2018,06,12,14,39,13.10
2018,06,12,14,40,13.00
2018,06,12,14,41,13.00
2018,06,12,14,42,13.00
2018,06,12,14,43,13.00
2018,06,12,14,44,12.90
2018,06,12,14,45,12.90
2018,06,12,14,46,12.90
2018,06,12,14,47,12.90
2018,06,12,14,48,12.90
2018,06,12,14,49,12.80
2018,06,12,14,50,12.80
2018,06,12,14,51,12.90
2018,06,12,14,52,12.90
2018,06,12,14,53,12.90
2018,06,12,14,54,12.80
2018,06,12,14,55,12.80
2018,06,12,14,56,12.80
2018,06,12,14,57,12.80
2018,06,12,14,58,12.80
2018,06,12,14,59,12.80
2018,06,12,15,00,12.80
2018,06,12,15,01,12.80
2018,06,12,15,02,12.80
2018,06,12,15,03,12.80
2018,06,12,15,04,12.80
2018,06,12,15,05,12.80
2018,06,12,15,06,12.80
2018,06,12,15,07,12.80
2018,06,12,15,08,12.80
2018,06,12,15,09,12.80
2018,06,12,15,10,12.80
2018,06,12,15,11,12.80
2018,06,12,15,12,12.70
2018,06,12,15,13,12.70
2018,06,12,15,14,12.70
2018,06,12,15,15,12.70
2018,06,12,15,16,12.80
2018,06,12,15,17,12.80
2018,06,12,15,18,12.80
2018,06,12,15,19,12.80
2018,06,12,15,20,12.80
2018,06,12,15,21,12.80
2018,06,12,15,22,12.80
2018,06,12,15,23,12.80
2018,06,12,15,24,12.80
2018,06,12,15,25,12.80
2018,06,12,15,26,12.80
2018,06,12,15,27,12.80
2018,06,12,15,28,12.80
2018,06,12,15,29,12.90
2018,06,12,15,30,12.90
2018,06,12,15,31,12.90
2018,06,12,15,32,12.90
2018,06,12,15,33,13.00
2018,06,12,15,34,13.00
2018,06,12,15,35,13.00
2018,06,12,15,36,13.00
2018,06,12,15,37,12.90
2018,06,12,15,38,12.90
2018,06,12,15,39,12.90
2018,06,12,15,40,12.90
2018,06,12,15,41,12.90
2018,06,12,15,42,12.90
2018,06,12,15,43,12.90
2018,06,12,15,44,12.90
2018,06,12,15,45,12.90
2018,06,12,15,46,12.90
2018,06,12,15,47,12.90
2018,06,12,15,48,12.90
2018,06,12,15,49,12.90
2018,06,12,15,50,12.80
2018,06,12,15,51,12.80
2018,06,12,15,52,12.80
2018,06,12,15,53,12.80
2018,06,12,15,54,12.80
2018,06,12,15,55,12.80
2018,06,12,15,56,12.80
2018,06,12,15,57,12.80
2018,06,12,15,58,12.80
2018,06,12,15,59,12.70
2018,06,12,16,00,12.70
2018,06,12,16,01,12.70
2018,06,12,16,02,12.70
2018,06,12,16,03,12.70
2018,06,12,16,04,12.70
2018,06,12,16,05,12.70
2018,06,12,16,06,12.70
2018,06,12,16,07,12.70
2018,06,12,16,08,12.70
2018,06,12,16,09,12.70
2018,06,12,16,10,12.70
2018,06,12,16,11,12.70
2018,06,12,16,12,12.70
2018,06,12,16,13,12.70
2018,06,12,16,14,12.60
2018,06,12,16,15,12.60
2018,06,12,16,16,12.60
2018,06,12,16,17,12.60
2018,06,12,16,18,12.60
2018,06,12,16,19,12.60
2018,06,12,16,20,12.60
2018,06,12,16,21,12.60
2018,06,12,16,22,12.60
2018,06,12,16,23,12.60
2018,06,12,16,24,12.60
2018,06,12,16,25,12.60
2018,06,12,16,26,12.60
2018,06,12,16,27,12.60
2018,06,12,16,28,12.60
2018,06,12,16,29,12.60
2018,06,12,16,30,12.60
2018,06,12,16,31,12.60
2018,06,12,16,32,12.60
2018,06,12,16,33,12.60
2018,06,12,16,34,12.60
2018,06,12,16,35,12.60
2018,06,12,16,36,12.60
2018,06,12,16,37,12.60
2018,06,12,16,38,12.60
2018,06,12,16,39,12.60
2018,06,12,16,40,12.60
2018,06,12,16,41,12.60
2018,06,12,16,42,12.60
2018,06,12,16,43,12.60
2018,06,12,16,44,12.50
2018,06,12,16,45,12.50
2018,06,12,16,46,12.50
2018,06,12,16,47,12.50
2018,06,12,16,48,12.50
2018,06,12,16,49,12.50
2018,06,12,16,50,12.50
2018,06,12,16,51,12.50
2018,06,12,16,52,12.50
2018,06,12,16,53,12.50
2018,06,12,16,54,12.50
2018,06,12,16,55,12.50
2018,06,12,16,56,12.60
2018,06,12,16,57,12.60
2018,06,12,16,58,12.60
2018,06,12,16,59,12.60
2018,06,12,17,00,12.60
2018,06,12,17,01,12.60
2018,06,12,17,02,12.60
2018,06,12,17,03,12.60
2018,06,12,17,04,12.60
2018,06,12,17,05,12.60
2018,06,12,17,06,12.70
2018,06,12,17,07,12.70
2018,06,12,17,08,12.70
2018,06,12,17,09,12.70
2018,06,12,17,10,12.70
2018,06,12,17,11,12.70
2018,06,12,17,12,12.70
2018,06,12,17,13,12.70
2018,06,12,17,14,12.70
2018,06,12,17,15,12.70
2018,06,12,17,16,12.70
2018,06,12,17,17,12.70
2018,06,12,17,18,12.70
2018,06,12,17,19,12.70
2018,06,12,17,20,12.70
2018,06,12,17,21,12.70
2018,06,12,17,22,12.70
2018,06,12,17,23,12.70
2018,06,12,17,24,12.70
2018,06,12,17,25,12.70
2018,06,12,17,26,12.70
2018,06,12,17,27,12.70
2018,06,12,17,28,12.70
2018,06,12,17,29,12.60
2018,06,12,17,30,12.60
2018,06,12,17,31,12.60
2018,06,12,17,32,12.60
2018,06,12,17,33,12.60
2018,06,12,17,34,12.60
2018,06,12,17,35,12.60